| time (UTC) | temp C | wind direction | speed KPH | gust KPH | rain 1hr cm | rain 24hr cm | rain mn cm | humidity % | barometer mb |
| 20260503225400 | 20 | 204 | 3.2 | 9.7 | 0.00 | 0.00 | 0.00 | 44 | 1014.7 |
| 20260503225131 | 20 | 221 | 1.6 | 9.7 | 0.00 | 0.00 | 0.00 | 45 | 1014.7 |
| 20260503224359 | 20 | 219 | 3.2 | 9.7 | 0.00 | 0.00 | 0.00 | 44 | 1014.8 |
| 20260503223859 | 20 | 208 | 1.6 | 9.7 | 0.00 | 0.00 | 0.00 | 45 | 1014.8 |
| 20260503222856 | 20 | 202 | 1.6 | 8.0 | 0.00 | 0.00 | 0.00 | 43 | 1014.8 |
| 20260503222357 | 20 | 188 | 3.2 | 8.0 | 0.00 | 0.00 | 0.00 | 40 | 1014.8 |
| 20260503221858 | 20 | 212 | 1.6 | 8.0 | 0.00 | 0.00 | 0.00 | 42 | 1014.8 |
| 20260503220858 | 20 | 200 | 3.2 | 17.7 | 0.00 | 0.00 | 0.00 | 42 | 1014.7 |
| 20260503220359 | 20 | 234 | 4.8 | 12.9 | 0.00 | 0.00 | 0.00 | 41 | 1014.8 |
| 20260503215857 | 20 | 209 | 3.2 | 12.9 | 0.00 | 0.00 | 0.00 | 40 | 1014.8 |
| 20260503215357 | 20 | 227 | 1.6 | 11.3 | 0.00 | 0.00 | 0.00 | 44 | 1014.9 |
| 20260503214857 | 20 | 200 | 1.6 | 11.3 | 0.00 | 0.00 | 0.00 | 41 | 1014.9 |
| 20260503214357 | 20 | 213 | 1.6 | 9.7 | 0.00 | 0.00 | 0.00 | 39 | 1014.9 |
| 20260503213857 | 20 | 204 | 1.6 | 11.3 | 0.00 | 0.00 | 0.00 | 41 | 1015.0 |
| 20260503213356 | 20 | 211 | 3.2 | 12.9 | 0.00 | 0.00 | 0.00 | 40 | 1015.1 |
| 20260503212857 | 21 | 220 | 3.2 | 12.9 | 0.00 | 0.00 | 0.00 | 39 | 1015.1 |
| 20260503212356 | 21 | 133 | 3.2 | 11.3 | 0.00 | 0.00 | 0.00 | 40 | 1015.0 |
| 20260503211855 | 20 | 215 | 1.6 | 11.3 | 0.00 | 0.00 | 0.00 | 41 | 1015.1 |
| 20260503211348 | 20 | 215 | 1.6 | 11.3 | 0.00 | 0.00 | 0.00 | 43 | 1015.2 |
| 20260503210843 | 20 | 173 | 3.2 | 14.5 | 0.00 | 0.00 | 0.00 | 41 | 1015.2 |
| 20260503210608 | 20 | 124 | 3.2 | 14.5 | 0.00 | 0.00 | 0.00 | 43 | 1015.2 |
| 20260503205831 | 20 | 127 | 4.8 | 16.1 | 0.00 | 0.00 | 0.00 | 42 | 1015.2 |
| 20260503205324 | 20 | 257 | 3.2 | 16.1 | 0.00 | 0.00 | 0.00 | 41 | 1015.3 |
| 20260503204819 | 20 | 244 | 4.8 | 16.1 | 0.00 | 0.00 | 0.00 | 40 | 1015.4 |
| 20260503204312 | 20 | 186 | 3.2 | 16.1 | 0.00 | 0.00 | 0.00 | 42 | 1015.5 |
| 20260503204038 | 20 | 232 | 1.6 | 12.9 | 0.00 | 0.00 | 0.00 | 44 | 1015.5 |
| 20260503203301 | 20 | 304 | 1.6 | 12.9 | 0.00 | 0.00 | 0.00 | 42 | 1015.7 |
| 20260503202754 | 20 | 154 | 3.2 | 19.3 | 0.00 | 0.00 | 0.00 | 43 | 1015.7 |
| 20260503202249 | 20 | 242 | 3.2 | 19.3 | 0.00 | 0.00 | 0.00 | 44 | 1015.8 |
| 20260503201744 | 20 | 157 | 1.6 | 11.3 | 0.00 | 0.00 | 0.00 | 42 | 1016.0 |
| 20260503201236 | 20 | 178 | 4.8 | 12.9 | 0.00 | 0.00 | 0.00 | 41 | 1016.1 |
| 20260503200731 | 20 | 186 | 4.8 | 16.1 | 0.00 | 0.00 | 0.00 | 45 | 1016.3 |
| 20260503200224 | 20 | 194 | 1.6 | 16.1 | 0.00 | 0.00 | 0.00 | 41 | 1016.3 |
| 20260503195718 | 20 | 223 | 1.6 | 6.4 | 0.00 | 0.00 | 0.00 | 40 | 1016.3 |
| 20260503195215 | 20 | 267 | 1.6 | 14.5 | 0.00 | 0.00 | 0.00 | 45 | 1016.4 |
| 20260503194708 | 20 | 199 | 3.2 | 14.5 | 0.00 | 0.00 | 0.00 | 44 | 1016.6 |
| 20260503194200 | 20 | 250 | 3.2 | 16.1 | 0.00 | 0.00 | 0.00 | 44 | 1016.6 |
| 20260503193653 | 20 | 182 | 1.6 | 16.1 | 0.00 | 0.00 | 0.00 | 42 | 1016.7 |
| 20260503193148 | 20 | 194 | 1.6 | 8.0 | 0.00 | 0.00 | 0.00 | 41 | 1016.7 |
| 20260503192641 | 20 | 163 | 1.6 | 6.4 | 0.00 | 0.00 | 0.00 | 43 | 1016.8 |
| 20260503192405 | 20 | 211 | 3.2 | 17.7 | 0.00 | 0.00 | 0.00 | 45 | 1016.8 |
| 20260503191629 | 19 | 279 | 3.2 | 17.7 | 0.00 | 0.00 | 0.00 | 46 | 1017.0 |
| 20260503191122 | 19 | 227 | 3.2 | 16.1 | 0.00 | 0.00 | 0.00 | 44 | 1017.0 |
| 20260503190847 | 19 | 197 | 1.6 | 11.3 | 0.00 | 0.00 | 0.00 | 41 | 1017.1 |
| 20260503190112 | 19 | 262 | 0.0 | 6.4 | 0.00 | 0.00 | 0.00 | 42 | 1017.2 |
| 20260503185605 | 19 | 283 | 0.0 | 9.7 | 0.00 | 0.00 | 0.00 | 42 | 1017.2 |
| 20260503185058 | 19 | 227 | 0.0 | 9.7 | 0.00 | 0.00 | 0.00 | 42 | 1017.3 |
| 20260503184554 | 18 | 247 | 0.0 | 3.2 | 0.00 | 0.00 | 0.00 | 44 | 1017.3 |
| 20260503184047 | 18 | 281 | 0.0 | 3.2 | 0.00 | 0.00 | 0.00 | 46 | 1017.3 |
| 20260503183814 | 18 | 259 | 0.0 | 11.3 | 0.00 | 0.00 | 0.00 | 44 | 1017.4 |
| 20260503183035 | 18 | 263 | 1.6 | 11.3 | 0.00 | 0.00 | 0.00 | 42 | 1017.5 |
| 20260503182529 | 18 | 271 | 1.6 | 12.9 | 0.00 | 0.00 | 0.00 | 44 | 1017.6 |
| 20260503182023 | 18 | 261 | 1.6 | 14.5 | 0.00 | 0.00 | 0.00 | 44 | 1017.6 |
| 20260503181747 | 18 | 257 | 1.6 | 14.5 | 0.00 | 0.00 | 0.00 | 42 | 1017.7 |
| 20260503181011 | 18 | 243 | 3.2 | 11.3 | 0.00 | 0.00 | 0.00 | 42 | 1017.7 |
| 20260503180504 | 18 | 211 | 3.2 | 16.1 | 0.00 | 0.00 | 0.00 | 42 | 1017.8 |
| 20260503175959 | 18 | 194 | 1.6 | 16.1 | 0.00 | 0.00 | 0.00 | 43 | 1017.8 |
| 20260503175452 | 18 | 228 | 1.6 | 16.1 | 0.00 | 0.00 | 0.00 | 44 | 1017.8 |
| 20260503174947 | 18 | 160 | 1.6 | 9.7 | 0.00 | 0.00 | 0.00 | 44 | 1017.9 |
| 20260503174440 | 17 | 198 | 1.6 | 9.7 | 0.00 | 0.00 | 0.00 | 44 | 1018.0 |
| 20260503174206 | 17 | 211 | 1.6 | 14.5 | 0.00 | 0.00 | 0.00 | 47 | 1018.0 |
| 20260503173430 | 17 | 222 | 1.6 | 14.5 | 0.00 | 0.00 | 0.00 | 44 | 1018.1 |
| 20260503172922 | 17 | 208 | 1.6 | 12.9 | 0.00 | 0.00 | 0.00 | 45 | 1018.2 |
| 20260503172417 | 17 | 254 | 0.0 | 12.9 | 0.00 | 0.00 | 0.00 | 46 | 1018.4 |
| 20260503171911 | 17 | 318 | 1.6 | 12.9 | 0.00 | 0.00 | 0.00 | 45 | 1018.4 |
| 20260503171405 | 17 | 219 | 0.0 | 11.3 | 0.00 | 0.00 | 0.00 | 47 | 1018.5 |
| 20260503170859 | 17 | 266 | 0.0 | 3.2 | 0.00 | 0.00 | 0.00 | 48 | 1018.6 |
| 20260503170353 | 17 | 186 | 1.6 | 19.3 | 0.00 | 0.00 | 0.00 | 45 | 1018.7 |
| 20260503150312 | 14 | 19 | 3.2 | 16.1 | 0.00 | 0.00 | 0.00 | 52 | 1019.9 |
| 20260503140311 | 13 | 348 | 8.0 | 22.5 | 0.00 | 0.00 | 0.00 | 55 | 1019.8 |
| 20260503131230 | 11 | 114 | 0.0 | 1.6 | 0.00 | 0.00 | 0.00 | 76 | 1019.8 |
| 20260503130957 | 10 | 109 | 0.0 | 3.2 | 0.00 | 0.00 | 0.00 | 81 | 1019.6 |
| 20260503130218 | 10 | 112 | 0.0 | 3.2 | 0.00 | 0.00 | 0.00 | 80 | 1019.6 |
| 20260503120106 | 2 | 336 | 0.0 | 0.0 | 0.00 | 0.00 | 0.00 | 99 | 1019.5 |
| 20260503110500 | 1 | 336 | 0.0 | 0.0 | 0.00 | 0.00 | 0.00 | 98 | 1019.2 |
| 20260503090306 | 1 | 336 | 0.0 | 0.0 | 0.00 | 0.00 | 0.00 | 97 | 1017.7 |
| 20260503081256 | 2 | 336 | 0.0 | 0.0 | 0.00 | 0.00 | 0.00 | 96 | 1017.1 |
| 20260503081033 | 2 | 336 | 0.0 | 0.0 | 0.00 | 0.00 | 0.00 | 96 | 1017.0 |
| 20260503080530 | 2 | 336 | 0.0 | 0.0 | 0.00 | 0.00 | 0.00 | 96 | 1017.0 |
| 20260503072754 | 2 | 336 | 0.0 | 0.0 | 0.00 | 0.00 | 0.00 | 96 | 1016.8 |
| 20260503072253 | 2 | 336 | 0.0 | 0.0 | 0.00 | 0.00 | 0.00 | 96 | 1016.7 |
| 20260503071801 | 2 | 336 | 0.0 | 0.0 | 0.00 | 0.00 | 0.00 | 96 | 1016.6 |
| 20260503071253 | 2 | 336 | 0.0 | 0.0 | 0.00 | 0.00 | 0.00 | 96 | 1016.6 |
| 20260503070754 | 2 | 336 | 0.0 | 0.0 | 0.00 | 0.00 | 0.00 | 96 | 1016.4 |
| 20260503070253 | 2 | 336 | 0.0 | 4.8 | 0.00 | 0.00 | 0.00 | 96 | 1016.4 |
| 20260503054930 | 3 | 336 | 0.0 | 0.0 | 0.00 | 0.00 | 0.00 | 94 | 1016.2 |
| 20260503053647 | 3 | 336 | 0.0 | 0.0 | 0.00 | 0.00 | 0.00 | 93 | 1016.2 |
| 20260503053141 | 3 | 336 | 0.0 | 0.0 | 0.00 | 0.00 | 0.00 | 93 | 1016.2 |
| 20260503052635 | 3 | 336 | 0.0 | 0.0 | 0.00 | 0.00 | 0.00 | 93 | 1016.3 |
| 20260503052129 | 3 | 336 | 0.0 | 0.0 | 0.00 | 0.00 | 0.00 | 93 | 1016.3 |
| 20260503051622 | 3 | 336 | 0.0 | 0.0 | 0.00 | 0.00 | 0.00 | 93 | 1016.3 |
| 20260503051348 | 3 | 336 | 0.0 | 0.0 | 0.00 | 0.00 | 0.00 | 93 | 1016.3 |
| 20260503050610 | 3 | 336 | 0.0 | 0.0 | 0.00 | 0.00 | 0.00 | 93 | 1016.3 |
| 20260503050105 | 4 | 336 | 0.0 | 0.0 | 0.00 | 0.00 | 0.00 | 93 | 1016.3 |
| 20260503045559 | 4 | 336 | 0.0 | 0.0 | 0.00 | 0.00 | 0.00 | 93 | 1016.2 |
| 20260503045053 | 4 | 336 | 0.0 | 0.0 | 0.00 | 0.00 | 0.00 | 92 | 1016.1 |
| 20260503044312 | 4 | 336 | 0.0 | 0.0 | 0.00 | 0.00 | 0.00 | 92 | 1016.0 |
| 20260503043805 | 4 | 336 | 0.0 | 0.0 | 0.00 | 0.00 | 0.00 | 92 | 1016.0 |
| 20260503043029 | 4 | 336 | 0.0 | 0.0 | 0.00 | 0.00 | 0.00 | 91 | 1016.0 |
| 20260503042753 | 4 | 336 | 0.0 | 0.0 | 0.00 | 0.00 | 0.00 | 90 | 1016.0 |
| 20260503042248 | 5 | 336 | 0.0 | 0.0 | 0.00 | 0.00 | 0.00 | 90 | 1015.8 |
| 20260503041511 | 5 | 336 | 0.0 | 0.0 | 0.00 | 0.00 | 0.00 | 90 | 1015.8 |
| 20260503041005 | 5 | 336 | 0.0 | 0.0 | 0.00 | 0.00 | 0.00 | 90 | 1015.7 |
| 20260503040730 | 5 | 336 | 0.0 | 0.0 | 0.00 | 0.00 | 0.00 | 90 | 1015.6 |
| 20260503035952 | 5 | 336 | 0.0 | 0.0 | 0.00 | 0.00 | 0.00 | 89 | 1015.5 |
| 20260503035445 | 5 | 336 | 0.0 | 0.0 | 0.00 | 0.00 | 0.00 | 89 | 1015.5 |
| 20260503034940 | 5 | 336 | 0.0 | 0.0 | 0.00 | 0.00 | 0.00 | 88 | 1015.5 |
| 20260503034434 | 5 | 336 | 0.0 | 0.0 | 0.00 | 0.00 | 0.00 | 87 | 1015.4 |
| 20260503033928 | 5 | 336 | 0.0 | 0.0 | 0.00 | 0.00 | 0.00 | 86 | 1015.4 |
| 20260503033422 | 6 | 336 | 0.0 | 0.0 | 0.00 | 0.00 | 0.00 | 86 | 1015.3 |
| 20260503032916 | 6 | 336 | 0.0 | 0.0 | 0.00 | 0.00 | 0.00 | 86 | 1015.2 |
| 20260503032409 | 6 | 336 | 0.0 | 0.0 | 0.00 | 0.00 | 0.00 | 84 | 1015.2 |
| 20260503031904 | 6 | 336 | 0.0 | 0.0 | 0.00 | 0.00 | 0.00 | 84 | 1015.1 |
| 20260503031358 | 6 | 336 | 0.0 | 0.0 | 0.00 | 0.00 | 0.00 | 83 | 1015.1 |
| 20260503030852 | 6 | 336 | 0.0 | 0.0 | 0.00 | 0.00 | 0.00 | 84 | 1015.0 |
| 20260503030346 | 6 | 336 | 0.0 | 0.0 | 0.00 | 0.00 | 0.00 | 83 | 1015.0 |
| 20260503025840 | 6 | 336 | 0.0 | 0.0 | 0.00 | 0.00 | 0.00 | 82 | 1015.0 |
| 20260503025334 | 7 | 336 | 0.0 | 0.0 | 0.00 | 0.00 | 0.00 | 82 | 1014.8 |
| 20260503024827 | 7 | 336 | 0.0 | 0.0 | 0.00 | 0.00 | 0.00 | 82 | 1014.8 |
| 20260503024322 | 7 | 336 | 0.0 | 0.0 | 0.00 | 0.00 | 0.00 | 81 | 1014.8 |
| 20260503023816 | 7 | 336 | 0.0 | 0.0 | 0.00 | 0.00 | 0.00 | 81 | 1014.7 |
| 20260503023310 | 7 | 336 | 0.0 | 0.0 | 0.00 | 0.00 | 0.00 | 80 | 1014.7 |
| 20260503022804 | 7 | 336 | 0.0 | 0.0 | 0.00 | 0.00 | 0.00 | 79 | 1014.7 |
| 20260503022258 | 8 | 336 | 0.0 | 0.0 | 0.00 | 0.00 | 0.00 | 79 | 1014.6 |
| 20260503022023 | 8 | 336 | 0.0 | 0.0 | 0.00 | 0.00 | 0.00 | 77 | 1014.7 |
| 20260503021016 | 9 | 336 | 0.0 | 0.0 | 0.00 | 0.00 | 0.00 | 73 | 1014.5 |
| 20260503020243 | 9 | 336 | 0.0 | 0.0 | 0.00 | 0.00 | 0.00 | 71 | 1014.5 |
| 20260503015743 | 9 | 336 | 0.0 | 0.0 | 0.00 | 0.00 | 0.00 | 70 | 1014.4 |
| 20260503015244 | 10 | 336 | 0.0 | 0.0 | 0.00 | 0.00 | 0.00 | 71 | 1014.4 |
| 20260503014741 | 11 | 336 | 0.0 | 0.0 | 0.00 | 0.00 | 0.00 | 66 | 1014.1 |
| 20260503014510 | 11 | 336 | 0.0 | 0.0 | 0.00 | 0.00 | 0.00 | 61 | 1014.0 |
| 20260503014009 | 11 | 336 | 0.0 | 0.0 | 0.00 | 0.00 | 0.00 | 64 | 1013.9 |
| 20260503013241 | 12 | 336 | 0.0 | 0.0 | 0.00 | 0.00 | 0.00 | 66 | 1013.8 |
| 20260503012736 | 12 | 336 | 0.0 | 0.0 | 0.00 | 0.00 | 0.00 | 63 | 1013.8 |
| 20260503012236 | 12 | 336 | 0.0 | 0.0 | 0.00 | 0.00 | 0.00 | 61 | 1013.6 |
| 20260503012005 | 13 | 336 | 0.0 | 1.6 | 0.00 | 0.00 | 0.00 | 58 | 1013.6 |
| 20260503011232 | 13 | 336 | 0.0 | 1.6 | 0.00 | 0.00 | 0.00 | 54 | 1013.5 |
| 20260503010730 | 14 | 336 | 0.0 | 0.0 | 0.00 | 0.00 | 0.00 | 47 | 1013.5 |
| 20260503010226 | 14 | 336 | 0.0 | 3.2 | 0.00 | 0.00 | 0.00 | 45 | 1013.4 |
| 20260503005726 | 15 | 336 | 0.0 | 3.2 | 0.00 | 0.00 | 0.00 | 43 | 1013.3 |
| 20260503005224 | 15 | 336 | 0.0 | 1.6 | 0.00 | 0.00 | 0.00 | 43 | 1013.1 |
| 20260503004724 | 15 | 336 | 0.0 | 1.6 | 0.00 | 0.00 | 0.00 | 43 | 1013.1 |
| 20260503004224 | 15 | 336 | 0.0 | 0.0 | 0.00 | 0.00 | 0.00 | 44 | 1012.9 |
| 20260503003721 | 15 | 336 | 0.0 | 4.8 | 0.00 | 0.00 | 0.00 | 43 | 1012.8 |
| 20260503003220 | 15 | 336 | 0.0 | 4.8 | 0.00 | 0.00 | 0.00 | 42 | 1012.8 |
| 20260503002946 | 15 | 320 | 0.0 | 4.8 | 0.00 | 0.00 | 0.00 | 42 | 1012.8 |
| 20260503002215 | 15 | 308 | 0.0 | 6.4 | 0.00 | 0.00 | 0.00 | 43 | 1012.6 |
| 20260503001715 | 15 | 275 | 0.0 | 6.4 | 0.00 | 0.00 | 0.00 | 42 | 1012.6 |
| 20260503001445 | 15 | 254 | 0.0 | 1.6 | 0.00 | 0.00 | 0.00 | 42 | 1012.5 |
| 20260503000716 | 16 | 246 | 0.0 | 1.6 | 0.00 | 0.00 | 0.00 | 41 | 1012.4 |
| 20260503000215 | 16 | 261 | 1.6 | 14.5 | 0.00 | 0.00 | 0.00 | 43 | 1012.3 |
| 20260502235714 | 16 | 9 | 1.6 | 14.5 | 0.00 | 0.00 | 0.00 | 41 | 1012.3 |
| 20260502235214 | 16 | 268 | 1.6 | 11.3 | 0.00 | 0.00 | 0.00 | 41 | 1012.1 |
| 20260502234715 | 16 | 282 | 1.6 | 14.5 | 0.00 | 0.00 | 0.00 | 40 | 1011.9 |
| 20260502234216 | 17 | 338 | 3.2 | 16.1 | 0.00 | 0.00 | 0.00 | 40 | 1011.9 |
| 20260502233716 | 17 | 335 | 3.2 | 16.1 | 0.00 | 0.00 | 0.00 | 39 | 1011.7 |
| 20260502233214 | 17 | 344 | 1.6 | 14.5 | 0.00 | 0.00 | 0.00 | 40 | 1011.6 |
| 20260502232715 | 17 | 302 | 3.2 | 14.5 | 0.00 | 0.00 | 0.00 | 40 | 1011.4 |
| 20260502232215 | 17 | 13 | 4.8 | 20.9 | 0.00 | 0.00 | 0.00 | 41 | 1011.5 |
| 20260502231714 | 17 | 308 | 8.0 | 24.1 | 0.00 | 0.00 | 0.00 | 40 | 1011.4 |
| 20260502231215 | 17 | 16 | 8.0 | 24.1 | 0.00 | 0.00 | 0.00 | 39 | 1011.4 |
| 20260502230715 | 17 | 19 | 4.8 | 19.3 | 0.00 | 0.00 | 0.00 | 39 | 1011.3 |
| 20260502230218 | 18 | 345 | 4.8 | 17.7 | 0.00 | 0.00 | 0.00 | 40 | 1011.2 |